Find Starlink 37318

NORAD ID: 68712 Int'l Des: 2026-081 Owner: SPXS Country: US Constellation: starlink operational
LEOCIRCULAR

Current View

Loading 3D Globe...

About Starlink 37318

Description loading...

Upcoming Passes

Passes for default location (London). Set your location on the main map for personalized predictions.

Altitude History

Loading altitude history...

Two-Line Element Set

1 68712U 26081P 26151.16668980 .00014054 00000-0 41307-3 0 9992
2 68712 53.1586 10.9758 0001251 79.9146 176.7491 15.35397438 5962
Epoch: May 31, 2026 • Age: 6 hours

Current Status

Altitude 472.6 km
Velocity 7.63 km/s
Sub-Earth Point -37.50°S, 176.22°W
Launch Date Apr 14, 2026
Age 0.1 years
Type internet

Technical Details

Classification Payload
Mass 575.00 kg
Dry Mass 530.00 kg
Total Mass 575.00 kg
Length 0.30 m
Diameter 4.10 m
Span 29.00 m
Shape Box + pan
Manufacturer SPXS
Bus Type Starlink V2MO
Phase Status In Orbit
Owner/State SPXS/US

Most Searched